Time,TemperatureF,DewpointF,PressureIn,WindDirection,WindDirectionDegrees,WindSpeedMPH,WindSpeedGustMPH,Humidity,HourlyPrecipIn,Conditions,Clouds,dailyrainin,SoftwareType,DateUTC
2013-04-10 00:00:00,45.3,42.5,29.94,East,101,0.0,2.0,90,0.00,,,0.03,Wunderground v.1.15,2013-04-10 04:00:00,
2013-04-10 00:05:00,45.3,42.5,29.93,East,101,0.0,2.0,90,0.00,,,0.03,Wunderground v.1.15,2013-04-10 04:05:00,
2013-04-10 00:10:00,45.2,42.4,29.93,East,101,0.0,0.0,90,0.00,,,0.03,Wunderground v.1.15,2013-04-10 04:10:00,
2013-04-10 00:15:00,45.2,42.4,29.92,East,101,0.0,0.0,90,0.00,,,0.03,Wunderground v.1.15,2013-04-10 04:15:00,
2013-04-10 00:20:00,45.2,42.4,29.92,East,101,0.0,0.0,90,0.00,,,0.03,Wunderground v.1.15,2013-04-10 04:20:00,
2013-04-10 00:25:00,45.2,42.4,29.91,East,101,0.0,0.0,90,0.00,,,0.03,Wunderground v.1.15,2013-04-10 04:25:00,
2013-04-10 00:30:00,45.2,42.4,29.91,East,101,0.0,1.0,90,0.00,,,0.03,Wunderground v.1.15,2013-04-10 04:30:00,
2013-04-10 00:35:00,45.3,42.5,29.91,East,101,0.0,1.0,90,0.00,,,0.03,Wunderground v.1.15,2013-04-10 04:35:00,
2013-04-10 00:45:00,45.4,42.6,29.91,East,101,0.0,0.0,90,0.00,,,0.03,Wunderground v.1.15,2013-04-10 04:45:00,
2013-04-10 00:50:00,45.4,42.6,29.90,East,101,0.0,0.0,90,0.00,,,0.03,Wunderground v.1.15,2013-04-10 04:50:00,
2013-04-10 00:55:00,45.5,42.7,29.89,East,101,0.0,2.0,90,0.00,,,0.03,Wunderground v.1.15,2013-04-10 04:55:00,
2013-04-10 01:00:00,45.5,42.4,29.88,East,99,0.0,0.0,89,0.00,,,0.00,Wunderground v.1.15,2013-04-10 05:00:00,
2013-04-10 01:05:00,45.6,42.5,29.88,East,99,0.0,0.0,89,0.00,,,0.00,Wunderground v.1.15,2013-04-10 05:05:00,
2013-04-10 01:15:00,45.6,42.5,29.90,ESE,103,0.0,0.0,89,0.00,,,0.00,Wunderground v.1.15,2013-04-10 05:15:00,
2013-04-10 01:25:00,45.6,42.5,29.91,ESE,103,0.0,0.0,89,0.00,,,0.00,Wunderground v.1.15,2013-04-10 05:25:00,
2013-04-10 01:30:00,45.6,42.5,29.91,ESE,104,0.0,0.0,89,0.00,,,0.00,Wunderground v.1.15,2013-04-10 05:30:00,
2013-04-10 01:35:00,45.6,42.3,29.92,ESE,104,0.0,0.0,88,0.00,,,0.00,Wunderground v.1.15,2013-04-10 05:35:00,
2013-04-10 01:40:00,45.6,42.3,29.92,ESE,104,0.0,0.0,88,0.00,,,0.00,Wunderground v.1.15,2013-04-10 05:40:00,
2013-04-10 01:45:00,45.6,42.3,29.92,ESE,104,0.0,0.0,88,0.00,,,0.00,Wunderground v.1.15,2013-04-10 05:45:00,
2013-04-10 01:50:00,45.7,42.3,29.92,ESE,103,0.0,0.0,88,0.00,,,0.00,Wunderground v.1.15,2013-04-10 05:50:00,
2013-04-10 01:55:00,45.6,42.3,29.92,ESE,104,0.0,0.0,88,0.00,,,0.00,Wunderground v.1.15,2013-04-10 05:55:00,
2013-04-10 02:00:00,45.7,42.3,29.93,ESE,104,0.0,0.0,88,0.00,,,0.00,Wunderground v.1.15,2013-04-10 06:00:00,
2013-04-10 02:05:00,45.8,42.4,29.93,ESE,104,0.0,0.0,88,0.00,,,0.00,Wunderground v.1.15,2013-04-10 06:05:00,
2013-04-10 02:10:00,45.8,42.7,29.93,ESE,104,0.0,0.0,89,0.00,,,0.00,Wunderground v.1.15,2013-04-10 06:10:00,
2013-04-10 02:15:00,45.8,42.7,29.93,ESE,103,0.0,0.0,89,0.00,,,0.00,Wunderground v.1.15,2013-04-10 06:15:00,
2013-04-10 02:25:00,45.8,42.7,29.93,ESE,103,0.0,0.0,89,0.00,,,0.00,Wunderground v.1.15,2013-04-10 06:25:00,
2013-04-10 02:30:00,45.8,42.7,29.93,ESE,103,0.0,0.0,89,0.00,,,0.00,Wunderground v.1.15,2013-04-10 06:30:00,
2013-04-10 02:35:00,45.8,42.7,29.93,ESE,104,0.0,0.0,89,0.00,,,0.00,Wunderground v.1.15,2013-04-10 06:35:00,
2013-04-10 02:45:00,45.8,42.7,29.93,ESE,104,0.0,0.0,89,0.00,,,0.00,Wunderground v.1.15,2013-04-10 06:45:00,
2013-04-10 02:50:00,45.7,42.9,29.94,ESE,103,0.0,0.0,90,0.00,,,0.00,Wunderground v.1.15,2013-04-10 06:50:00,
2013-04-10 02:55:00,45.7,42.9,29.94,ESE,103,0.0,0.0,90,0.00,,,0.00,Wunderground v.1.15,2013-04-10 06:55:00,
2013-04-10 03:00:00,45.7,42.9,29.94,ESE,104,0.0,0.0,90,0.00,,,0.00,Wunderground v.1.15,2013-04-10 07:00:00,
2013-04-10 03:05:00,45.7,42.9,29.93,ESE,104,0.0,0.0,90,0.00,,,0.00,Wunderground v.1.15,2013-04-10 07:05:00,
2013-04-10 03:10:00,45.6,42.8,29.95,ESE,104,0.0,0.0,90,0.00,,,0.00,Wunderground v.1.15,2013-04-10 07:10:00,
2013-04-10 03:15:00,45.7,43.2,29.95,ESE,104,0.0,0.0,91,0.00,,,0.01,Wunderground v.1.15,2013-04-10 07:15:00,
2013-04-10 03:20:00,45.7,43.2,29.95,ESE,104,0.0,0.0,91,0.00,,,0.01,Wunderground v.1.15,2013-04-10 07:20:00,
2013-04-10 03:25:00,45.6,43.4,29.95,ESE,104,0.0,0.0,92,0.05,,,0.02,Wunderground v.1.15,2013-04-10 07:25:00,
2013-04-10 03:30:00,45.5,43.3,29.96,ESE,104,0.0,0.0,92,0.05,,,0.02,Wunderground v.1.15,2013-04-10 07:30:00,
2013-04-10 03:40:00,45.4,43.5,29.95,ESE,104,0.0,0.0,93,0.12,,,0.04,Wunderground v.1.15,2013-04-10 07:40:00,
2013-04-10 03:45:00,45.2,43.3,29.94,ESE,103,0.0,0.0,93,0.20,,,0.06,Wunderground v.1.15,2013-04-10 07:45:00,
2013-04-10 03:50:00,45.2,43.3,29.91,ESE,104,0.0,0.0,93,0.34,,,0.08,Wunderground v.1.15,2013-04-10 07:50:00,
2013-04-10 03:55:00,45.1,43.2,29.91,ESE,104,0.0,0.0,93,0.21,,,0.09,Wunderground v.1.15,2013-04-10 07:55:00,
2013-04-10 04:00:00,45.0,43.4,29.90,ESE,104,0.0,0.0,94,0.14,,,0.10,Wunderground v.1.15,2013-04-10 08:00:00,
2013-04-10 04:05:00,45.0,43.4,29.89,ESE,104,0.0,0.0,94,0.06,,,0.10,Wunderground v.1.15,2013-04-10 08:05:00,
2013-04-10 04:10:00,45.0,43.4,29.88,ESE,103,0.0,0.0,94,0.04,,,0.10,Wunderground v.1.15,2013-04-10 08:10:00,
2013-04-10 04:15:00,45.0,43.4,29.88,ESE,104,0.0,0.0,94,0.00,,,0.10,Wunderground v.1.15,2013-04-10 08:15:00,
2013-04-10 04:25:00,44.8,43.5,29.90,ESE,104,0.0,0.0,95,0.00,,,0.10,Wunderground v.1.15,2013-04-10 08:25:00,
2013-04-10 04:30:00,44.8,43.5,29.89,ESE,103,0.0,0.0,95,0.00,,,0.10,Wunderground v.1.15,2013-04-10 08:30:00,
2013-04-10 04:35:00,44.7,43.4,29.89,ESE,104,0.0,0.0,95,0.00,,,0.10,Wunderground v.1.15,2013-04-10 08:35:00,
2013-04-10 04:45:00,44.7,43.4,29.88,ESE,103,0.0,0.0,95,0.00,,,0.11,Wunderground v.1.15,2013-04-10 08:45:00,
2013-04-10 04:50:00,44.7,43.4,29.88,ESE,104,0.0,0.0,95,0.00,,,0.11,Wunderground v.1.15,2013-04-10 08:50:00,
2013-04-10 04:55:00,44.7,43.4,29.88,ESE,104,0.0,0.0,95,0.00,,,0.11,Wunderground v.1.15,2013-04-10 08:55:00,
2013-04-10 05:00:00,44.6,43.3,29.89,ESE,104,0.0,0.0,95,0.00,,,0.11,Wunderground v.1.15,2013-04-10 09:00:00,
2013-04-10 05:05:00,44.6,43.5,29.88,ESE,104,0.0,0.0,96,0.00,,,0.11,Wunderground v.1.15,2013-04-10 09:05:00,
2013-04-10 05:15:00,44.6,43.5,29.88,ESE,103,0.0,0.0,96,0.00,,,0.11,Wunderground v.1.15,2013-04-10 09:15:00,
2013-04-10 05:20:00,44.5,43.4,29.88,ESE,104,0.0,0.0,96,0.00,,,0.11,Wunderground v.1.15,2013-04-10 09:20:00,
2013-04-10 05:25:00,44.5,43.4,29.88,ESE,104,0.0,0.0,96,0.00,,,0.11,Wunderground v.1.15,2013-04-10 09:25:00,
2013-04-10 05:30:00,44.5,43.4,29.87,ESE,103,0.0,0.0,96,0.00,,,0.11,Wunderground v.1.15,2013-04-10 09:30:00,
2013-04-10 05:35:00,44.6,43.5,29.88,ESE,104,0.0,0.0,96,0.00,,,0.11,Wunderground v.1.15,2013-04-10 09:35:00,
2013-04-10 05:40:00,44.5,43.4,29.88,ESE,104,0.0,0.0,96,0.00,,,0.11,Wunderground v.1.15,2013-04-10 09:40:00,
2013-04-10 05:45:00,44.5,43.4,29.88,ESE,103,0.0,0.0,96,0.00,,,0.11,Wunderground v.1.15,2013-04-10 09:45:00,
2013-04-10 05:55:00,44.5,43.4,29.88,ESE,103,0.0,0.0,96,0.00,,,0.11,Wunderground v.1.15,2013-04-10 09:55:00,
2013-04-10 06:00:00,44.6,43.5,29.88,ESE,103,0.0,0.0,96,0.00,,,0.11,Wunderground v.1.15,2013-04-10 10:00:00,
2013-04-10 06:05:00,44.5,43.4,29.88,ESE,104,0.0,0.0,96,0.00,,,0.11,Wunderground v.1.15,2013-04-10 10:05:00,
2013-04-10 06:15:00,44.6,43.8,29.88,ESE,104,0.0,0.0,97,0.00,,,0.11,Wunderground v.1.15,2013-04-10 10:15:00,
2013-04-10 06:20:00,44.7,43.9,29.88,ESE,103,0.0,0.0,97,0.00,,,0.11,Wunderground v.1.15,2013-04-10 10:20:00,
2013-04-10 06:25:00,44.7,43.9,29.88,ESE,104,0.0,0.0,97,0.00,,,0.11,Wunderground v.1.15,2013-04-10 10:25:00,
2013-04-10 06:30:00,44.7,43.9,29.88,ESE,103,0.0,0.0,97,0.00,,,0.11,Wunderground v.1.15,2013-04-10 10:30:00,
2013-04-10 06:40:00,44.8,44.0,29.89,ESE,104,0.0,0.0,97,0.00,,,0.11,Wunderground v.1.15,2013-04-10 10:40:00,
2013-04-10 06:45:00,44.8,44.0,29.89,ESE,103,0.0,0.0,97,0.00,,,0.11,Wunderground v.1.15,2013-04-10 10:45:00,
2013-04-10 06:50:00,44.8,44.0,29.89,ESE,104,0.0,0.0,97,0.00,,,0.11,Wunderground v.1.15,2013-04-10 10:50:00,
2013-04-10 07:00:00,45.0,44.2,29.89,ESE,104,0.0,0.0,97,0.00,,,0.11,Wunderground v.1.15,2013-04-10 11:00:00,
2013-04-10 07:05:00,44.9,44.1,29.89,ESE,103,0.0,0.0,97,0.00,,,0.11,Wunderground v.1.15,2013-04-10 11:05:00,
2013-04-10 07:10:00,45.0,44.2,29.89,ESE,104,0.0,0.0,97,0.00,,,0.11,Wunderground v.1.15,2013-04-10 11:10:00,
2013-04-10 07:20:00,45.0,44.2,29.89,ESE,103,0.0,0.0,97,0.00,,,0.11,Wunderground v.1.15,2013-04-10 11:20:00,
2013-04-10 07:25:00,45.0,44.2,29.89,ESE,104,0.0,0.0,97,0.00,,,0.11,Wunderground v.1.15,2013-04-10 11:25:00,
2013-04-10 07:30:00,45.0,44.2,29.88,ESE,103,0.0,0.0,97,0.00,,,0.11,Wunderground v.1.15,2013-04-10 11:30:00,
2013-04-10 07:40:00,45.1,44.3,29.89,ESE,103,0.0,0.0,97,0.00,,,0.11,Wunderground v.1.15,2013-04-10 11:40:00,
2013-04-10 07:55:00,45.3,44.5,29.90,ESE,102,0.0,0.0,97,0.00,,,0.11,Wunderground v.1.15,2013-04-10 11:55:00,
2013-04-10 08:00:00,45.4,44.6,29.90,ESE,103,0.0,0.0,97,0.00,,,0.11,Wunderground v.1.15,2013-04-10 12:00:00,
2013-04-10 08:05:00,45.4,44.6,29.90,ESE,102,0.0,0.0,97,0.00,,,0.11,Wunderground v.1.15,2013-04-10 12:05:00,
2013-04-10 08:10:00,45.5,44.7,29.90,ESE,103,0.0,0.0,97,0.00,,,0.11,Wunderground v.1.15,2013-04-10 12:10:00,
2013-04-10 08:15:00,45.5,44.7,29.91,ESE,103,0.0,0.0,97,0.00,,,0.11,Wunderground v.1.15,2013-04-10 12:15:00,
2013-04-10 08:25:00,45.5,44.7,29.91,ESE,103,0.0,2.0,97,0.00,,,0.11,Wunderground v.1.15,2013-04-10 12:25:00,
2013-04-10 08:30:00,45.4,44.6,29.91,ESE,102,0.0,0.0,97,0.00,,,0.11,Wunderground v.1.15,2013-04-10 12:30:00,
2013-04-10 08:40:00,45.6,44.8,29.91,ESE,103,0.0,0.0,97,0.00,,,0.11,Wunderground v.1.15,2013-04-10 12:40:00,
2013-04-10 08:50:00,45.9,45.1,29.92,ESE,102,0.0,1.0,97,0.00,,,0.11,Wunderground v.1.15,2013-04-10 12:50:00,
2013-04-10 08:55:00,46.0,45.2,29.92,East,99,0.0,2.0,97,0.00,,,0.11,Wunderground v.1.15,2013-04-10 12:55:00,
2013-04-10 09:00:00,46.0,45.2,29.92,East,99,0.0,0.0,97,0.00,,,0.11,Wunderground v.1.15,2013-04-10 13:00:00,
2013-04-10 09:10:00,46.3,45.8,29.92,East,99,0.0,0.0,98,0.00,,,0.11,Wunderground v.1.15,2013-04-10 13:10:00,
2013-04-10 09:15:00,46.4,45.6,29.92,East,99,0.0,0.0,97,0.00,,,0.11,Wunderground v.1.15,2013-04-10 13:15:00,
2013-04-10 09:20:00,46.4,45.6,29.92,East,99,0.0,0.0,97,0.00,,,0.11,Wunderground v.1.15,2013-04-10 13:20:00,
2013-04-10 09:25:00,46.3,45.5,29.92,East,99,0.0,0.0,97,0.00,,,0.11,Wunderground v.1.15,2013-04-10 13:25:00,
2013-04-10 09:35:00,46.4,45.6,29.92,East,99,0.0,0.0,97,0.00,,,0.11,Wunderground v.1.15,2013-04-10 13:35:00,
2013-04-10 09:40:00,46.4,45.6,29.92,East,99,0.0,0.0,97,0.00,,,0.11,Wunderground v.1.15,2013-04-10 13:40:00,
2013-04-10 09:45:00,46.3,45.5,29.92,East,99,0.0,0.0,97,0.00,,,0.11,Wunderground v.1.15,2013-04-10 13:45:00,
2013-04-10 09:50:00,46.3,45.5,29.92,East,99,0.0,0.0,97,0.00,,,0.11,Wunderground v.1.15,2013-04-10 13:50:00,
2013-04-10 10:00:00,46.5,45.7,29.92,East,99,0.0,2.0,97,0.00,,,0.11,Wunderground v.1.15,2013-04-10 14:00:00,
2013-04-10 10:05:00,46.4,45.3,29.92,East,99,1.0,2.0,96,0.00,,,0.11,Wunderground v.1.15,2013-04-10 14:05:00,
2013-04-10 10:10:00,46.5,45.4,29.92,East,101,1.0,1.0,96,0.00,,,0.11,Wunderground v.1.15,2013-04-10 14:10:00,
2013-04-10 10:15:00,46.4,45.3,29.92,East,101,1.0,1.0,96,0.00,,,0.11,Wunderground v.1.15,2013-04-10 14:15:00,
2013-04-10 10:20:00,46.5,45.4,29.92,East,99,1.0,1.0,96,0.00,,,0.11,Wunderground v.1.15,2013-04-10 14:20:00,
2013-04-10 10:25:00,46.5,45.1,29.92,East,101,1.0,2.0,95,0.00,,,0.11,Wunderground v.1.15,2013-04-10 14:25:00,
2013-04-10 10:35:00,46.5,45.1,29.92,East,99,0.0,1.0,95,0.00,,,0.11,Wunderground v.1.15,2013-04-10 14:35:00,
2013-04-10 10:40:00,46.7,45.3,29.92,East,98,0.0,0.0,95,0.00,,,0.11,Wunderground v.1.15,2013-04-10 14:40:00,
2013-04-10 10:45:00,46.9,45.5,29.92,East,96,0.0,0.0,95,0.00,,,0.11,Wunderground v.1.15,2013-04-10 14:45:00,
2013-04-10 10:55:00,47.0,45.4,29.92,East,99,1.0,3.0,94,0.00,,,0.11,Wunderground v.1.15,2013-04-10 14:55:00,
2013-04-10 11:05:00,47.3,45.4,29.92,ESE,102,1.0,1.0,93,0.00,,,0.11,Wunderground v.1.15,2013-04-10 15:05:00,
2013-04-10 11:10:00,47.5,45.6,29.92,ESE,103,1.0,1.0,93,0.00,,,0.11,Wunderground v.1.15,2013-04-10 15:10:00,
2013-04-10 11:15:00,47.7,45.8,29.93,ESE,104,0.0,1.0,93,0.00,,,0.11,Wunderground v.1.15,2013-04-10 15:15:00,
2013-04-10 11:20:00,48.1,46.2,29.92,ESE,103,0.0,2.0,93,0.00,,,0.11,Wunderground v.1.15,2013-04-10 15:20:00,
2013-04-10 11:30:00,49.1,46.9,29.92,ESE,104,0.0,0.0,92,0.00,,,0.11,Wunderground v.1.15,2013-04-10 15:30:00,
2013-04-10 11:35:00,49.5,47.0,29.92,ESE,103,0.0,2.0,91,0.00,,,0.11,Wunderground v.1.15,2013-04-10 15:35:00,
2013-04-10 11:40:00,49.7,46.9,29.92,ESE,103,1.0,1.0,90,0.00,,,0.11,Wunderground v.1.15,2013-04-10 15:40:00,
2013-04-10 11:50:00,49.9,47.1,29.91,ESE,103,1.0,1.0,90,0.00,,,0.11,Wunderground v.1.15,2013-04-10 15:50:00,
2013-04-10 11:55:00,50.3,47.5,29.90,East,101,1.0,1.0,90,0.00,,,0.11,Wunderground v.1.15,2013-04-10 15:55:00,
2013-04-10 12:05:00,51.5,48.4,29.91,East,96,1.0,1.0,89,0.00,,,0.11,Wunderground v.1.15,2013-04-10 16:05:00,
2013-04-10 12:10:00,51.7,48.0,29.91,East,99,0.0,3.0,87,0.00,,,0.11,Wunderground v.1.15,2013-04-10 16:10:00,
2013-04-10 12:15:00,51.5,47.8,29.91,ESE,103,1.0,3.0,87,0.00,,,0.11,Wunderground v.1.15,2013-04-10 16:15:00,
2013-04-10 12:20:00,51.5,47.5,29.91,East,95,1.0,3.0,86,0.00,,,0.11,Wunderground v.1.15,2013-04-10 16:20:00,
2013-04-10 12:25:00,51.5,47.5,29.90,NNE,14,1.0,3.0,86,0.00,,,0.11,Wunderground v.1.15,2013-04-10 16:25:00,
2013-04-10 12:30:00,51.5,47.1,29.90,ESE,109,1.0,1.0,85,0.00,,,0.11,Wunderground v.1.15,2013-04-10 16:30:00,
2013-04-10 12:35:00,51.3,46.6,29.91,ESE,110,1.0,3.0,84,0.00,,,0.11,Wunderground v.1.15,2013-04-10 16:35:00,
2013-04-10 12:45:00,50.6,46.3,29.91,East,94,2.0,5.0,85,0.00,,,0.11,Wunderground v.1.15,2013-04-10 16:45:00,
2013-04-10 12:55:00,50.9,46.9,29.90,ENE,59,2.0,3.0,86,0.00,,,0.11,Wunderground v.1.15,2013-04-10 16:55:00,
2013-04-10 13:00:00,50.6,46.3,29.91,East,93,3.0,3.0,85,0.00,,,0.11,Wunderground v.1.15,2013-04-10 17:00:00,
2013-04-10 13:05:00,50.5,46.5,29.91,ESE,103,2.0,3.0,86,0.00,,,0.11,Wunderground v.1.15,2013-04-10 17:05:00,
2013-04-10 13:10:00,50.5,46.5,29.92,East,96,1.0,1.0,86,0.00,,,0.11,Wunderground v.1.15,2013-04-10 17:10:00,
2013-04-10 13:15:00,50.6,46.3,29.92,ENE,73,1.0,1.0,85,0.00,,,0.11,Wunderground v.1.15,2013-04-10 17:15:00,
2013-04-10 13:20:00,50.7,46.4,29.91,East,83,1.0,1.0,85,0.00,,,0.11,Wunderground v.1.15,2013-04-10 17:20:00,
2013-04-10 13:30:00,50.7,46.7,29.91,ESE,116,2.0,2.0,86,0.00,,,0.11,Wunderground v.1.15,2013-04-10 17:30:00,
2013-04-10 13:35:00,50.9,46.9,29.92,East,83,2.0,3.0,86,0.00,,,0.11,Wunderground v.1.15,2013-04-10 17:35:00,
2013-04-10 13:40:00,50.8,46.1,29.91,ESE,102,1.0,3.0,84,0.00,,,0.11,Wunderground v.1.15,2013-04-10 17:40:00,
2013-04-10 13:45:00,50.3,46.0,29.91,East,101,1.0,3.0,85,0.00,,,0.11,Wunderground v.1.15,2013-04-10 17:45:00,
2013-04-10 13:50:00,49.8,45.8,29.91,ENE,59,2.0,2.0,86,0.00,,,0.11,Wunderground v.1.15,2013-04-10 17:50:00,
2013-04-10 13:55:00,50.0,46.0,29.91,East,94,2.0,6.0,86,0.00,,,0.11,Wunderground v.1.15,2013-04-10 17:55:00,
2013-04-10 14:05:00,50.2,46.2,29.91,East,89,2.0,2.0,86,0.00,,,0.11,Wunderground v.1.15,2013-04-10 18:05:00,
2013-04-10 14:10:00,50.6,46.6,29.91,East,93,1.0,5.0,86,0.00,,,0.11,Wunderground v.1.15,2013-04-10 18:10:00,
2013-04-10 14:20:00,50.3,46.0,29.91,ENE,68,2.0,2.0,85,0.00,,,0.11,Wunderground v.1.15,2013-04-10 18:20:00,
2013-04-10 14:25:00,50.4,46.1,29.92,East,90,1.0,2.0,85,0.00,,,0.11,Wunderground v.1.15,2013-04-10 18:25:00,
2013-04-10 14:30:00,50.6,46.3,29.92,East,98,1.0,1.0,85,0.00,,,0.11,Wunderground v.1.15,2013-04-10 18:30:00,
2013-04-10 14:40:00,50.8,46.5,29.91,East,94,1.0,1.0,85,0.00,,,0.11,Wunderground v.1.15,2013-04-10 18:40:00,
2013-04-10 14:45:00,51.3,46.9,29.91,East,94,1.0,1.0,85,0.00,,,0.11,Wunderground v.1.15,2013-04-10 18:45:00,
2013-04-10 14:50:00,51.7,47.0,29.90,East,97,1.0,1.0,84,0.00,,,0.11,Wunderground v.1.15,2013-04-10 18:50:00,
2013-04-10 15:00:00,51.3,46.6,29.89,ESE,119,2.0,3.0,84,0.00,,,0.11,Wunderground v.1.15,2013-04-10 19:00:00,
2013-04-10 15:05:00,51.0,46.6,29.89,East,87,2.0,6.0,85,0.00,,,0.11,Wunderground v.1.15,2013-04-10 19:05:00,
2013-04-10 15:15:00,50.9,46.2,29.89,ESE,109,1.0,3.0,84,0.00,,,0.11,Wunderground v.1.15,2013-04-10 19:15:00,
2013-04-10 15:20:00,50.9,46.2,29.89,ESE,109,1.0,1.0,84,0.00,,,0.11,Wunderground v.1.15,2013-04-10 19:20:00,
2013-04-10 15:30:00,50.8,46.5,29.89,East,98,0.0,0.0,85,0.00,,,0.11,Wunderground v.1.15,2013-04-10 19:30:00,
2013-04-10 15:35:00,50.9,46.9,29.89,East,98,0.0,0.0,86,0.00,,,0.11,Wunderground v.1.15,2013-04-10 19:35:00,
2013-04-10 15:45:00,51.6,47.5,29.84,East,97,1.0,1.0,86,0.00,,,0.11,Wunderground v.1.15,2013-04-10 19:45:00,
2013-04-10 15:50:00,52.3,47.9,29.84,East,96,1.0,1.0,85,0.00,,,0.11,Wunderground v.1.15,2013-04-10 19:50:00,
2013-04-10 16:00:00,53.3,48.3,29.82,ESE,117,1.0,1.0,83,0.00,,,0.11,Wunderground v.1.15,2013-04-10 20:00:00,
2013-04-10 16:10:00,53.7,48.3,29.81,ESE,117,1.0,1.0,82,0.00,,,0.11,Wunderground v.1.15,2013-04-10 20:10:00,
2013-04-10 16:15:00,53.7,48.3,29.83,NE,44,1.0,1.0,82,0.00,,,0.11,Wunderground v.1.15,2013-04-10 20:15:00,
2013-04-10 16:20:00,54.1,48.7,29.84,NE,44,0.0,1.0,82,0.00,,,0.11,Wunderground v.1.15,2013-04-10 20:20:00,
2013-04-10 16:25:00,54.6,48.6,29.83,NE,52,0.0,1.0,80,0.00,,,0.11,Wunderground v.1.15,2013-04-10 20:25:00,
2013-04-10 16:30:00,55.0,48.9,29.83,NE,52,0.0,0.0,80,0.00,,,0.11,Wunderground v.1.15,2013-04-10 20:30:00,
2013-04-10 16:35:00,55.3,48.9,29.84,NE,52,0.0,0.0,79,0.00,,,0.11,Wunderground v.1.15,2013-04-10 20:35:00,
2013-04-10 16:45:00,55.6,48.8,29.84,NE,53,0.0,0.0,78,0.00,,,0.11,Wunderground v.1.15,2013-04-10 20:45:00,
2013-04-10 16:55:00,55.5,48.8,29.85,NE,53,0.0,0.0,78,0.00,,,0.11,Wunderground v.1.15,2013-04-10 20:55:00,
2013-04-10 17:00:00,55.4,48.7,29.86,NE,52,0.0,0.0,78,0.00,,,0.11,Wunderground v.1.15,2013-04-10 21:00:00,
2013-04-10 17:05:00,55.4,48.7,29.86,NE,53,0.0,0.0,78,0.00,,,0.11,Wunderground v.1.15,2013-04-10 21:05:00,
2013-04-10 17:10:00,55.1,49.0,29.85,NE,52,0.0,0.0,80,0.00,,,0.11,Wunderground v.1.15,2013-04-10 21:10:00,
2013-04-10 17:15:00,54.8,48.7,29.85,NE,53,0.0,0.0,80,0.00,,,0.11,Wunderground v.1.15,2013-04-10 21:15:00,
2013-04-10 17:25:00,54.9,48.8,29.85,NE,53,0.0,0.0,80,0.00,,,0.11,Wunderground v.1.15,2013-04-10 21:25:00,
2013-04-10 17:30:00,55.1,49.0,29.85,NE,52,0.0,0.0,80,0.00,,,0.11,Wunderground v.1.15,2013-04-10 21:30:00,
2013-04-10 17:35:00,55.3,49.2,29.85,NE,53,0.0,0.0,80,0.00,,,0.11,Wunderground v.1.15,2013-04-10 21:35:00,
2013-04-10 17:40:00,55.5,49.1,29.84,NE,53,0.0,0.0,79,0.00,,,0.11,Wunderground v.1.15,2013-04-10 21:40:00,
2013-04-10 17:45:00,55.6,49.2,29.85,NE,52,0.0,0.0,79,0.00,,,0.11,Wunderground v.1.15,2013-04-10 21:45:00,
2013-04-10 17:50:00,55.6,48.8,29.84,East,87,0.0,0.0,78,0.00,,,0.11,Wunderground v.1.15,2013-04-10 21:50:00,
2013-04-10 17:55:00,55.5,48.8,29.83,East,87,0.0,0.0,78,0.00,,,0.11,Wunderground v.1.15,2013-04-10 21:55:00,
2013-04-10 18:00:00,55.4,48.7,29.84,East,87,0.0,0.0,78,0.00,,,0.11,Wunderground v.1.15,2013-04-10 22:00:00,
2013-04-10 18:05:00,55.3,48.6,29.84,East,88,0.0,0.0,78,0.00,,,0.11,Wunderground v.1.15,2013-04-10 22:05:00,
2013-04-10 18:15:00,55.2,49.1,29.82,East,88,0.0,0.0,80,0.00,,,0.11,Wunderground v.1.15,2013-04-10 22:15:00,
2013-04-10 18:25:00,54.9,48.5,29.83,East,88,0.0,0.0,79,0.00,,,0.11,Wunderground v.1.15,2013-04-10 22:25:00,
2013-04-10 18:30:00,54.6,48.2,29.83,East,90,0.0,0.0,79,0.00,,,0.11,Wunderground v.1.15,2013-04-10 22:30:00,
2013-04-10 18:35:00,54.4,48.4,29.83,East,90,0.0,0.0,80,0.00,,,0.11,Wunderground v.1.15,2013-04-10 22:35:00,
2013-04-10 18:45:00,54.1,47.7,29.83,East,95,0.0,1.0,79,0.00,,,0.11,Wunderground v.1.15,2013-04-10 22:45:00,
2013-04-10 18:50:00,54.0,47.6,29.83,East,101,0.0,0.0,79,0.00,,,0.11,Wunderground v.1.15,2013-04-10 22:50:00,
2013-04-10 18:55:00,53.8,47.4,29.83,East,101,0.0,0.0,79,0.00,,,0.11,Wunderground v.1.15,2013-04-10 22:55:00,
2013-04-10 19:00:00,53.7,47.3,29.82,ESE,110,0.0,0.0,79,0.00,,,0.11,Wunderground v.1.15,2013-04-10 23:00:00,
2013-04-10 19:05:00,53.5,47.1,29.81,ESE,109,0.0,0.0,79,0.00,,,0.11,Wunderground v.1.15,2013-04-10 23:05:00,
2013-04-10 19:15:00,53.2,46.9,29.81,South,171,0.0,0.0,79,0.00,,,0.11,Wunderground v.1.15,2013-04-10 23:15:00,
2013-04-10 19:20:00,53.0,46.7,29.82,South,171,0.0,0.0,79,0.00,,,0.11,Wunderground v.1.15,2013-04-10 23:20:00,
2013-04-10 19:25:00,52.8,46.5,29.83,SSE,163,0.0,0.0,79,0.00,,,0.11,Wunderground v.1.15,2013-04-10 23:25:00,
2013-04-10 19:30:00,52.6,46.3,29.84,SSE,163,0.0,0.0,79,0.00,,,0.11,Wunderground v.1.15,2013-04-10 23:30:00,
2013-04-10 19:40:00,51.9,46.9,29.85,SSE,167,0.0,0.0,83,0.24,,,0.14,Wunderground v.1.15,2013-04-10 23:40:00,
2013-04-10 19:50:00,50.4,46.7,29.84,SSE,167,0.0,0.0,87,0.22,,,0.17,Wunderground v.1.15,2013-04-10 23:50:00,
2013-04-10 19:55:00,49.9,46.8,29.83,SSE,167,0.0,0.0,89,0.34,,,0.19,Wunderground v.1.15,2013-04-10 23:55:00,
2013-04-10 20:05:00,48.8,46.0,29.82,SE,146,0.0,0.0,90,0.17,,,0.23,Wunderground v.1.15,2013-04-11 00:05:00,
2013-04-10 20:15:00,48.1,45.9,29.84,SSE,148,0.0,0.0,92,0.11,,,0.25,Wunderground v.1.15,2013-04-11 00:15:00,
2013-04-10 20:20:00,47.8,45.9,29.83,SSE,160,0.0,0.0,93,0.09,,,0.26,Wunderground v.1.15,2013-04-11 00:20:00,
2013-04-10 20:25:00,47.6,45.7,29.84,SSE,160,0.0,0.0,93,0.08,,,0.27,Wunderground v.1.15,2013-04-11 00:25:00,
2013-04-10 20:30:00,47.5,45.9,29.86,SSE,160,0.0,0.0,94,0.30,,,0.29,Wunderground v.1.15,2013-04-11 00:30:00,
2013-04-10 20:35:00,47.5,45.9,29.85,SSE,160,0.0,0.0,94,0.53,,,0.32,Wunderground v.1.15,2013-04-11 00:35:00,
2013-04-10 20:40:00,47.4,46.0,29.84,SSE,161,0.0,0.0,95,0.28,,,0.35,Wunderground v.1.15,2013-04-11 00:40:00,
2013-04-10 20:50:00,47.3,45.9,29.85,SSE,160,0.0,0.0,95,0.07,,,0.36,Wunderground v.1.15,2013-04-11 00:50:00,
2013-04-10 20:55:00,47.2,45.8,29.85,SSE,161,0.0,0.0,95,0.07,,,0.37,Wunderground v.1.15,2013-04-11 00:55:00,
2013-04-10 21:05:00,47.0,45.9,29.85,SSE,150,0.0,0.0,96,0.05,,,0.38,Wunderground v.1.15,2013-04-11 01:05:00,
2013-04-10 21:10:00,46.9,45.8,29.87,SSE,150,0.0,0.0,96,0.05,,,0.38,Wunderground v.1.15,2013-04-11 01:10:00,
2013-04-10 21:15:00,46.9,45.8,29.88,SSE,149,0.0,0.0,96,0.05,,,0.38,Wunderground v.1.15,2013-04-11 01:15:00,
2013-04-10 21:20:00,46.9,45.8,29.88,SSE,150,0.0,0.0,96,0.00,,,0.38,Wunderground v.1.15,2013-04-11 01:20:00,
2013-04-10 21:30:00,46.8,45.7,29.88,SSE,149,0.0,0.0,96,0.00,,,0.39,Wunderground v.1.15,2013-04-11 01:30:00,
2013-04-10 21:35:00,46.7,45.6,29.87,SSE,150,0.0,0.0,96,0.07,,,0.40,Wunderground v.1.15,2013-04-11 01:35:00,
2013-04-10 21:40:00,46.7,45.6,29.86,SSE,149,0.0,0.0,96,0.07,,,0.40,Wunderground v.1.15,2013-04-11 01:40:00,
2013-04-10 21:45:00,46.7,45.6,29.86,SSE,150,0.0,0.0,96,0.05,,,0.40,Wunderground v.1.15,2013-04-11 01:45:00,
2013-04-10 21:55:00,46.7,45.9,29.84,SSE,149,0.0,0.0,97,0.00,,,0.40,Wunderground v.1.15,2013-04-11 01:55:00,
2013-04-10 22:00:00,46.7,45.9,29.84,SSE,150,0.0,0.0,97,0.00,,,0.40,Wunderground v.1.15,2013-04-11 02:00:00,
2013-04-10 22:05:00,46.7,45.9,29.84,SSE,150,0.0,0.0,97,0.00,,,0.40,Wunderground v.1.15,2013-04-11 02:05:00,
2013-04-10 22:10:00,46.7,45.9,29.84,SSE,150,0.0,0.0,97,0.00,,,0.40,Wunderground v.1.15,2013-04-11 02:10:00,
2013-04-10 22:15:00,46.7,45.9,29.84,SSE,149,0.0,0.0,97,0.00,,,0.40,Wunderground v.1.15,2013-04-11 02:15:00,
2013-04-10 22:25:00,46.8,46.0,29.84,SSE,150,0.0,0.0,97,0.00,,,0.41,Wunderground v.1.15,2013-04-11 02:25:00,
2013-04-10 22:30:00,46.8,46.0,29.84,SSE,150,0.0,0.0,97,0.00,,,0.41,Wunderground v.1.15,2013-04-11 02:30:00,
2013-04-10 22:40:00,46.8,46.0,29.83,SSE,149,0.0,0.0,97,0.00,,,0.41,Wunderground v.1.15,2013-04-11 02:40:00,
2013-04-10 22:45:00,46.8,46.0,29.84,SSE,150,0.0,0.0,97,0.00,,,0.41,Wunderground v.1.15,2013-04-11 02:45:00,
2013-04-10 22:50:00,46.7,45.9,29.84,SSE,149,0.0,1.0,97,0.00,,,0.41,Wunderground v.1.15,2013-04-11 02:50:00,
2013-04-10 22:55:00,46.6,45.8,29.83,SSE,150,0.0,1.0,97,0.00,,,0.41,Wunderground v.1.15,2013-04-11 02:55:00,
2013-04-10 23:00:00,46.5,45.7,29.84,SSE,150,0.0,0.0,97,0.00,,,0.41,Wunderground v.1.15,2013-04-11 03:00:00,
2013-04-10 23:10:00,46.3,45.5,29.84,SSE,150,0.0,0.0,97,0.00,,,0.42,Wunderground v.1.15,2013-04-11 03:10:00,
2013-04-10 23:20:00,46.1,45.3,29.84,SSE,149,0.0,0.0,97,0.00,,,0.42,Wunderground v.1.15,2013-04-11 03:20:00,
2013-04-10 23:25:00,46.1,45.3,29.85,SSE,149,0.0,0.0,97,0.00,,,0.42,Wunderground v.1.15,2013-04-11 03:25:00,
2013-04-10 23:30:00,46.0,45.2,29.85,SSE,150,0.0,0.0,97,0.00,,,0.42,Wunderground v.1.15,2013-04-11 03:30:00,
2013-04-10 23:35:00,45.9,45.1,29.85,SSE,149,0.0,0.0,97,0.00,,,0.42,Wunderground v.1.15,2013-04-11 03:35:00,
2013-04-10 23:45:00,45.9,45.1,29.85,SSE,150,0.0,0.0,97,0.00,,,0.42,Wunderground v.1.15,2013-04-11 03:45:00,
2013-04-10 23:50:00,45.9,45.1,29.85,SSE,149,0.0,0.0,97,0.00,,,0.42,Wunderground v.1.15,2013-04-11 03:50:00,